TimeCST,TemperatureF,Dew PointF,Humidity,Sea Level PressureIn,VisibilityMPH,Wind Direction,Wind SpeedMPH,Gust SpeedMPH,PrecipitationIn,Events,Conditions,WindDirDegrees,DateUTC
12:53 AM,30.0,27.0,88,30.13,10.0,Calm,Calm,-,N/A,,Clear,0,2014-01-17 06:53:00
1:53 AM,30.0,28.0,92,30.11,10.0,Calm,Calm,-,N/A,,Clear,0,2014-01-17 07:53:00
2:53 AM,30.9,28.0,89,30.10,10.0,Calm,Calm,-,N/A,,Clear,0,2014-01-17 08:53:00
3:53 AM,30.9,28.0,89,30.10,10.0,Calm,Calm,-,N/A,,Clear,0,2014-01-17 09:53:00
4:53 AM,30.9,28.9,92,30.10,10.0,Calm,Calm,-,N/A,,Clear,0,2014-01-17 10:53:00
5:53 AM,30.9,28.9,92,30.11,10.0,Calm,Calm,-,N/A,,Clear,0,2014-01-17 11:53:00
6:53 AM,34.0,32.0,92,30.12,10.0,WSW,4.6,-,N/A,,Clear,250,2014-01-17 12:53:00
7:53 AM,50.0,45.0,83,30.15,10.0,WSW,6.9,-,N/A,,Clear,250,2014-01-17 13:53:00
8:53 AM,51.1,44.1,77,30.16,10.0,West,6.9,-,N/A,,Clear,270,2014-01-17 14:53:00
9:53 AM,57.0,41.0,55,30.17,10.0,West,9.2,-,N/A,,Clear,270,2014-01-17 15:53:00
10:53 AM,57.9,37.0,46,30.16,10.0,West,10.4,-,N/A,,Clear,280,2014-01-17 16:53:00
11:53 AM,60.1,30.0,32,30.13,10.0,West,10.4,-,N/A,,Clear,270,2014-01-17 17:53:00
12:53 PM,62.1,23.0,22,30.09,10.0,WNW,13.8,18.4,N/A,,Clear,290,2014-01-17 18:53:00
1:53 PM,62.1,21.9,21,30.06,10.0,WSW,11.5,-,N/A,,Clear,240,2014-01-17 19:53:00
2:53 PM,62.1,23.0,22,30.07,10.0,West,12.7,-,N/A,,Clear,260,2014-01-17 20:53:00
3:53 PM,61.0,21.0,21,30.06,10.0,West,16.1,21.9,N/A,,Clear,280,2014-01-17 21:53:00
4:53 PM,57.0,19.9,24,30.08,10.0,West,9.2,-,N/A,,Clear,270,2014-01-17 22:53:00
5:53 PM,52.0,18.0,26,30.11,10.0,WNW,8.1,-,N/A,,Clear,290,2014-01-17 23:53:00
6:53 PM,50.0,18.0,28,30.14,10.0,WNW,8.1,-,N/A,,Clear,290,2014-01-18 00:53:00
7:53 PM,48.9,12.9,24,30.17,10.0,WNW,11.5,-,N/A,,Clear,300,2014-01-18 01:53:00
8:53 PM,46.0,15.1,29,30.20,10.0,NW,10.4,-,N/A,,Clear,320,2014-01-18 02:53:00
9:53 PM,43.0,12.0,28,30.22,10.0,NW,10.4,-,N/A,,Clear,320,2014-01-18 03:53:00
10:53 PM,39.9,12.0,32,30.22,10.0,NW,6.9,-,N/A,,Clear,310,2014-01-18 04:53:00
11:53 PM,32.0,18.0,56,30.23,10.0,NW,3.5,-,N/A,,Clear,320,2014-01-18 05:53:00